{"data":{"norad_id":60596,"epoch":"2026-09-21T20:23:33.908928Z","epoch_age_seconds":71791,"freshness":"FRESH","line1":"1 60596U 24150P   26264.84969802  .00000136  00000+0  15150-4 0  9999","line2":"2 60596  53.1589 111.6745 0001240  91.1641 268.9503 15.34388221118058","mean_motion":15.34388221,"eccentricity":0.000124,"inclination_deg":53.1589,"raan_deg":111.6745,"arg_perigee_deg":91.1641,"mean_anomaly_deg":268.9503,"bstar":1.515e-5,"rev_number":11805,"period_min":93.848478520092,"perigee_km":461.88998157037,"apogee_km":463.58651863239,"semimajor_km":6840.8752501014,"source":"CELESTRAK","updated_at":"2026-09-22T09:00:49.274075Z"}}